Content
SEND FEEDBACK

Daily
Averages
Monthly
Summary
United States of America

DECATUR, ALABAMA


Home > North America > United States > Alabama
Elevation: 607 feet     Latitude: 34 39N     Longitude: 086 46W

WEATHER
 
SELECT A DAY
Number of Records: 205,499;   Date Range: 1/1/95 - 9/30/14
 
SHARE

PRINT THIS DATA

[ ← Previous Day ]
WEATHER ALMANAC - JANUARY 31, 2013
[ Next Day → ]
[ °C ]   °F
Weather ElementAverageHighLow
Temperature39.9 °F50 °F (3:53 pm)32 °F (4:53 am)
Dewpoint26.5 °F30 °F (11:53 pm)23 °F (3:53 am)
Humidity59.8 %78 % (7:53 am)39 % (3:53 pm)
Barometer30.12 in30.19 in (10:53 am)30.01 in (1:53 am)
Wind Speed10.4 mph17.3 mph (9:31 am)
Wind Gust26.5 mph (9:31 am)
Weather ElementAverage
Visibility10 mi
Wind DirectionWSW (263.8 °)

Weather ElementTotal
Precipitation---
Heating Degree Days24 (Base 65)
Averaged from 26 records on January 31, 2013
WEATHER CONDITIONS BREAKOUT
WIND DIRECTION BREAKOUT
WEATHER BY HOUR - JANUARY 31, 2013
[ °C ]   °F
Local TimeTemperatureDewpointHumidityBarometerVisibilityWind DirectionWind SpeedGust SpeedPrecipitationEventsConditions
1:53 AM37.0 °F24.1 °F59 %30.01 in10.0 miWNW (300°)16.1 mph23.0 mphOvercast
2:53 AM35.1 °F25.0 °F67 %30.01 in10.0 miWNW (300°)10.4 mphMostly Cloudy
3:53 AM34.0 °F23.0 °F64 %30.02 in10.0 miWNW (300°)10.4 mphScattered Clouds
4:53 AM32.0 °F25.0 °F75 %30.05 in10.0 miWest (260°)5.8 mphPartly Cloudy
5:53 AM33.1 °F25.0 °F72 %30.08 in10.0 miWest (260°)15.0 mphScattered Clouds
6:48 AM32.0 °F24.8 °F75 %30.09 in10.0 miWest (270°)8.1 mphMostly Cloudy
6:53 AM33.1 °F25.0 °F72 %30.10 in10.0 miWest (260°)10.4 mphMostly Cloudy
7:53 AM33.1 °F27.0 °F78 %30.14 in10.0 miWest (260°)12.7 mphMostly Cloudy
8:53 AM34.0 °F25.0 °F70 %30.17 in10.0 miWest (280°)16.1 mph24.2 mphMostly Cloudy
9:31 AM35.6 °F24.8 °F65 %30.16 in10.0 miWNW (300°)17.3 mph26.5 mphScattered Clouds
9:53 AM37.0 °F26.1 °F65 %30.18 in10.0 miWNW (300°)13.8 mph20.7 mphPartly Cloudy
10:53 AM39.0 °F27.0 °F62 %30.19 in10.0 miWest (270°)9.2 mph17.3 mphPartly Cloudy
11:53 AM43.0 °F27.0 °F53 %30.18 in10.0 miWest (270°)8.1 mphClear
12:53 PM46.0 °F27.0 °F47 %30.15 in10.0 miWNW (290°)10.4 mphClear
1:53 PM46.9 °F26.1 °F44 %30.13 in10.0 miWNW (290°)9.2 mph19.6 mphClear
2:53 PM48.9 °F27.0 °F43 %30.12 in10.0 miWSW (240°)6.9 mphClear
3:53 PM50.0 °F26.1 °F39 %30.10 in10.0 miWest (260°)9.2 mph20.7 mphClear
4:53 PM48.0 °F26.1 °F42 %30.09 in10.0 miWSW (240°)9.2 mphClear
5:53 PM44.1 °F27.0 °F51 %30.11 in10.0 miSW (230°)9.2 mphClear
6:53 PM43.0 °F28.0 °F56 %30.13 in10.0 miSW (230°)8.1 mphClear
7:53 PM42.1 °F28.0 °F58 %30.12 in10.0 miSSW (210°)6.9 mphClear
8:53 PM42.1 °F28.9 °F60 %30.14 in10.0 miSW (230°)10.4 mphClear
9:53 PM41.0 °F28.9 °F62 %30.14 in10.0 miSW (220°)10.4 mphClear
10:53 PM43.0 °F28.9 °F58 %30.13 in10.0 miSW (220°)12.7 mphMostly Cloudy
11:32 PM42.8 °F28.4 °F57 %30.16 in10.0 miWest (280°)6.9 mph18.4 mphPartly Cloudy
11:53 PM42.1 °F30.0 °F62 %30.18 in10.0 miWNW (290°)8.1 mphMostly Cloudy
Hourly data recorded from KHSV, located miles away from Decatur, Alabama







STORIES FROM OUR PARTNERS